Location: Kitchener
(43.4500°N, 80.5000°W)
Time: 06:35:18
(UTC-04:00)

Tiangong 2 - Pass Details

Date: 27 May 2018
Orbit: 291 x 297 km, 42.8° (Epoch: 21 June)

Event Time Altitude Azimuth Distance (km) Brightness Sun altitude
Rises 21:44:54 0° 264° (W) 1,978 5.4 -8.6°
Reaches altitude 10° 21:46:52 10° 263° (W) 1,153 4.1 -8.9°
Maximum altitude 21:49:26 77° 178° (S) 305 0.4 -9.2°
Enters shadow 21:51:58 10° 91° (E) 1,139 3.0 -9.6°
